Hourly Data Report for May 02, 2018

DRYDEN REGIONAL
ONTARIO
Current Station Operator: NAVCAN

49°49'39.000" N
92°44'39.000" W
412.70 m
6032125
71527
YHD

Download Data

Hourly Data (May 2018)
Hourly Data Report for May 2, 2018
TIME
LST
Temp Definition
°C
Dew Point Definition
°C
Rel Hum Definition
%
Precip. Amount Definition
mm

Wind Dir Definition
10's deg

Wind Spd Definition
km/h
Visibility Definition
km
Stn Press Definition
kPa
Hmdx Definition


Wind Chill Definition


Weather Definition


00:00 1.2 1.2 100 0.0 6 5 0.6 96.26     Fog
01:00 1.2 1.2 100 0.0 5 5 0.4 96.20     Fog
02:00 1.1 1.1 100 0.0 4 5 0.6 96.18     Fog
03:00 0.8 0.8 100 0.0 5 5 0.4 96.18     Fog
04:00 0.3 0.3 100 0.0 5 9 1.2 96.15     Fog
05:00 0.1 0.1 100 0.0 5 5 0.6 96.21     Fog
06:00 0.5 0.5 100 0.0 30 4 1.2 96.26     Rain, Fog
07:00 1.2 1.2 100 0.0 LegendMM 4 3.6 96.25     Fog
08:00 2.1 2.0 99 0.0 23 8 16.1 96.25     LegendNANA
09:00 3.0 2.1 94 0.0 23 9 16.1 96.25     LegendNANA
10:00 3.8 1.5 85 0.0 25 15 16.1 96.26     LegendNANA
11:00 4.6 1.1 78 0.0 25 11 16.1 96.24     LegendNANA
12:00 6.5 1.0 68 0.0 25 15 16.1 96.23     LegendNANA
13:00 6.8 1.0 66 0.0 25 17 16.1 96.22     LegendNANA
14:00 7.6 1.5 65 0.0 24 15 16.1 96.24     LegendNANA
15:00 8.4 1.3 61 0.0 27 15 16.1 96.25     LegendNANA
16:00 9.6 0.8 54 0.0 27 22 16.1 96.21     LegendNANA
17:00 10.6 0.4 49 0.0 24 18 16.1 96.19     LegendNANA
18:00 10.7 0.4 49 0.0 23 18 16.1 96.18     LegendNANA
19:00 9.0 0.4 55 0.0 21 9 16.1 96.14     LegendNANA
20:00 7.5 0.8 62 0.0 18 9 16.1 96.14     LegendNANA
21:00 6.6 0.7 66 0.0 19 13 16.1 96.16     LegendNANA
22:00 7.0 0.9 65 0.0 17 13 16.1 96.15     LegendNANA
23:00 6.8 0.7 65 0.0 18 13 16.1 96.17     LegendNANA

Notes on Data Quality.

Legend

  • E = Estimated
  • M = Missing
  • NA = Not Available*
  • [empty] = Indicates an unobserved value
Date modified: